Tracking 35331 objects as of 14-Sep-2026
HD Live streaming from Space Station
objects crossing your sky now

STARLINK-4075

Track STARLINK-4075 now!
10-day predictions
STARLINK-4075 is classified as:


NORAD ID: 52670
Int'l Code: 2022-053Q
Launch date: May 18, 2022
Source: United States (US)
Launch site: AIR FORCE EASTERN TEST RANGE (AFETR)
Your satellite tracking list
Your tracking list is empty




NASA's NSSDC Master Catalog

Two Line Element Set (TLE):
1 52670U 22053Q   26256.65847550 -.00000397  00000-0 -68367-5 0  9999
2 52670  53.1607  29.7384 0001551  95.6117 264.5051 15.08837351239422
Source of the keplerian elements: AFSPC